User: anonymous   Login
Location: D�rnast
(49.6426°N, 11.9755°E)
Time: 20:22:06
(UTC+00:00)
Language:

Cosmos 2082 Rocket - Orbit

View from above orbital plane
View from above orbital plane
View from above satellite
View from above satellite

Ground track
Ground track

The orbit data is extracted from the following two-line orbital elements,

1 20625U 90046B   21126.93010694 -.00000268  00000-0 -11433-3 0  9991
2 20625  71.0014  49.2261 0011972 114.5251 245.7121 14.14669267598362
Epoch (UTC): 06 May 2021 22:19:21
Eccentricity: 0.0011972
inclination: 71.0014°
perigee height: 835 km
apogee height: 852 km
right ascension of ascending node: 49.2261°
argument of perigee: 114.5251°
revolutions per day: 14.14669267
mean anomaly at epoch: 245.7121°
orbit number at epoch: 59836

The dashed part of the orbit path shows where the satellite is in the earth's shadow,  

DLR